TimeCST,TemperatureF,Dew PointF,Humidity,Sea Level PressureIn,VisibilityMPH,Wind Direction,Wind SpeedMPH,Gust SpeedMPH,PrecipitationIn,Events,Conditions,WindDirDegrees,DateUTC
12:53 AM,39.9,30.0,68,29.64,10.0,NNW,19.6,-,N/A,,Clear,340,2013-02-18 06:53:00
1:53 AM,39.0,30.0,70,29.63,10.0,NNW,19.6,26.5,N/A,,Clear,340,2013-02-18 07:53:00
2:53 AM,39.0,28.0,65,29.64,10.0,NNW,26.5,32.2,N/A,,Partly Cloudy,340,2013-02-18 08:53:00
3:53 AM,37.9,28.0,68,29.63,10.0,NNW,25.3,32.2,N/A,,Clear,340,2013-02-18 09:53:00
4:53 AM,36.0,27.0,70,29.66,10.0,NNW,27.6,40.3,N/A,,Overcast,340,2013-02-18 10:53:00
5:53 AM,36.0,26.1,67,29.70,10.0,NNW,31.1,40.3,N/A,,Overcast,340,2013-02-18 11:53:00
6:53 AM,35.1,24.1,64,29.73,10.0,North,24.2,33.4,N/A,,Partly Cloudy,350,2013-02-18 12:53:00
7:53 AM,35.6,24.8,65,29.73,10.0,NNW,25.3,33.4,N/A,,Overcast,340,2013-02-18 13:53:00
8:53 AM,34.0,25.0,70,29.81,10.0,NNW,27.6,38.0,N/A,,Overcast,340,2013-02-18 14:53:00
9:53 AM,32.0,19.0,59,29.86,10.0,NNW,34.5,51.8,N/A,,Overcast,340,2013-02-18 15:53:00
10:53 AM,30.0,18.0,61,29.90,10.0,NW,32.2,41.4,N/A,,Overcast,320,2013-02-18 16:53:00
11:53 AM,30.9,17.1,57,29.94,10.0,NNW,28.8,40.3,N/A,,Overcast,330,2013-02-18 17:53:00
12:53 PM,33.1,17.1,52,29.94,10.0,NNW,32.2,41.4,N/A,,Mostly Cloudy,330,2013-02-18 18:53:00
1:53 PM,35.1,17.1,48,29.95,10.0,NW,26.5,36.8,N/A,,Mostly Cloudy,310,2013-02-18 19:53:00
2:53 PM,35.1,16.0,46,29.96,10.0,NNW,25.3,34.5,N/A,,Partly Cloudy,340,2013-02-18 20:53:00
3:53 PM,34.0,16.0,48,29.99,10.0,NNW,23.0,34.5,N/A,,Scattered Clouds,340,2013-02-18 21:53:00
4:53 PM,32.0,16.0,52,30.01,10.0,NNW,18.4,-,N/A,,Mostly Cloudy,340,2013-02-18 22:53:00
5:53 PM,30.9,16.0,54,30.03,10.0,NNW,15.0,-,N/A,,Clear,330,2013-02-18 23:53:00
6:53 PM,27.0,15.1,61,30.06,10.0,NNW,8.1,-,N/A,,Partly Cloudy,330,2013-02-19 00:53:00
7:53 PM,27.0,16.0,63,30.07,10.0,WNW,5.8,-,N/A,,Overcast,290,2013-02-19 01:53:00
8:53 PM,24.1,16.0,71,30.10,10.0,NW,6.9,-,N/A,,Clear,310,2013-02-19 02:53:00
9:53 PM,25.0,17.1,72,30.13,10.0,NW,10.4,-,N/A,,Mostly Cloudy,320,2013-02-19 03:53:00
10:53 PM,24.1,16.0,71,30.15,10.0,NNW,18.4,24.2,0.00,,Mostly Cloudy,330,2013-02-19 04:53:00
11:53 PM,21.9,12.9,68,30.18,10.0,NNW,18.4,25.3,N/A,,Clear,330,2013-02-19 05:53:00